| time (UTC) | temp F | wind direction | speed MPH | gust MPH | rain 1hr in | rain 24hr in | rain mn in | humidity % | barometer mb |
| 20260510080905 | 51 | 13 | 5.0 | 17.0 | 0.00 | 0.00 | 0.00 | 79 | 1018.6 |
| 20260510080005 | 50 | 17 | 3.0 | 17.0 | 0.00 | 0.00 | 0.00 | 81 | 1018.6 |
| 20260510075618 | 50 | 12 | 4.0 | 13.0 | 0.00 | 0.00 | 0.00 | 81 | 1018.5 |
| 20260510074504 | 50 | 4 | 6.0 | 17.0 | 0.00 | 0.00 | 0.00 | 81 | 1018.6 |
| 20260510073603 | 50 | 7 | 6.0 | 22.0 | 0.00 | 0.00 | 0.00 | 81 | 1018.6 |
| 20260510072705 | 50 | 15 | 4.0 | 15.0 | 0.00 | 0.00 | 0.00 | 82 | 1018.5 |
| 20260510071805 | 50 | 4 | 5.0 | 17.0 | 0.00 | 0.00 | 0.00 | 82 | 1018.7 |
| 20260510070904 | 50 | 8 | 4.0 | 13.0 | 0.00 | 0.00 | 0.00 | 82 | 1018.5 |
| 20260510070003 | 50 | 356 | 4.0 | 15.0 | 0.00 | 0.00 | 0.00 | 83 | 1018.5 |
| 20260510065403 | 50 | 360 | 6.0 | 15.0 | 0.00 | 0.00 | 0.00 | 83 | 1018.5 |
| 20260510064505 | 50 | 1 | 6.0 | 19.0 | 0.00 | 0.00 | 0.00 | 83 | 1018.4 |
| 20260510063818 | 50 | 5 | 6.0 | 19.0 | 0.00 | 0.00 | 0.00 | 83 | 1018.4 |
| 20260510062705 | 49 | 10 | 6.0 | 19.0 | 0.00 | 0.00 | 0.00 | 84 | 1018.2 |
| 20260510061806 | 49 | 4 | 7.0 | 16.0 | 0.00 | 0.00 | 0.00 | 84 | 1018.2 |
| 20260510061118 | 49 | 5 | 6.0 | 17.0 | 0.00 | 0.00 | 0.00 | 84 | 1018.3 |
| 20260510060003 | 49 | 9 | 4.0 | 13.0 | 0.00 | 0.00 | 0.00 | 85 | 1018.1 |
| 20260510055403 | 49 | 15 | 4.0 | 14.0 | 0.00 | 0.00 | 0.00 | 85 | 1018.2 |
| 20260510054505 | 49 | 9 | 6.0 | 19.0 | 0.00 | 0.00 | 0.00 | 85 | 1018.2 |
| 20260510053605 | 49 | 7 | 4.0 | 11.0 | 0.00 | 0.00 | 0.00 | 85 | 1018.2 |
| 20260510052703 | 49 | 18 | 4.0 | 14.0 | 0.00 | 0.00 | 0.00 | 85 | 1018.2 |
| 20260510051805 | 49 | 3 | 6.0 | 16.0 | 0.00 | 0.00 | 0.00 | 85 | 1018.2 |
| 20260510050905 | 49 | 9 | 5.0 | 17.0 | 0.00 | 0.00 | 0.00 | 85 | 1018.4 |
| 20260510050003 | 49 | 7 | 6.0 | 16.0 | 0.00 | 0.00 | 0.00 | 86 | 1018.2 |
| 20260510045617 | 49 | 9 | 6.0 | 16.0 | 0.00 | 0.00 | 0.00 | 86 | 1018.2 |
| 20260510044503 | 48 | 17 | 4.0 | 14.0 | 0.00 | 0.00 | 0.00 | 86 | 1018.2 |
| 20260510043605 | 48 | 2 | 5.0 | 18.0 | 0.00 | 0.00 | 0.00 | 85 | 1018.1 |
| 20260510042703 | 49 | 3 | 7.0 | 19.0 | 0.00 | 0.00 | 0.00 | 85 | 1018.1 |
| 20260510041804 | 49 | 1 | 7.0 | 18.0 | 0.00 | 0.00 | 0.00 | 85 | 1018.1 |
| 20260510040904 | 49 | 6 | 6.0 | 16.0 | 0.00 | 0.00 | 0.00 | 84 | 1018.1 |
| 20260510040219 | 49 | 6 | 6.0 | 19.0 | 0.00 | 0.00 | 0.00 | 85 | 1018.2 |
| 20260510035405 | 49 | 11 | 6.0 | 17.0 | 0.00 | 0.00 | 0.00 | 85 | 1018.2 |
| 20260510034505 | 49 | 9 | 5.0 | 12.0 | 0.00 | 0.00 | 0.00 | 85 | 1018.3 |
| 20260510033605 | 49 | 4 | 6.0 | 16.0 | 0.00 | 0.00 | 0.00 | 85 | 1018.4 |
| 20260510032703 | 49 | 2 | 4.0 | 17.0 | 0.00 | 0.00 | 0.00 | 85 | 1018.4 |
| 20260510031805 | 49 | 10 | 6.0 | 17.0 | 0.00 | 0.00 | 0.00 | 85 | 1018.4 |
| 20260510031119 | 49 | 11 | 5.0 | 15.0 | 0.00 | 0.00 | 0.00 | 85 | 1018.4 |
| 20260510030216 | 49 | 7 | 5.0 | 15.0 | 0.00 | 0.00 | 0.00 | 85 | 1018.3 |
| 20260510025618 | 49 | 8 | 5.0 | 15.0 | 0.00 | 0.00 | 0.00 | 84 | 1018.4 |
| 20260510024505 | 49 | 3 | 7.0 | 14.0 | 0.00 | 0.00 | 0.00 | 84 | 1018.5 |
| 20260510023819 | 49 | 3 | 7.0 | 16.0 | 0.00 | 0.00 | 0.00 | 84 | 1018.6 |
| 20260510022705 | 48 | 3 | 5.0 | 13.0 | 0.00 | 0.00 | 0.00 | 84 | 1018.5 |
| 20260510021805 | 49 | 359 | 5.0 | 15.0 | 0.00 | 0.00 | 0.00 | 83 | 1018.4 |
| 20260510020903 | 49 | 8 | 5.0 | 15.0 | 0.00 | 0.00 | 0.00 | 83 | 1018.6 |
| 20260510020003 | 49 | 3 | 5.0 | 12.0 | 0.00 | 0.00 | 0.00 | 83 | 1018.5 |
| 20260510015618 | 49 | 4 | 5.0 | 12.0 | 0.00 | 0.00 | 0.00 | 83 | 1018.6 |
| 20260510014505 | 49 | 3 | 4.0 | 12.0 | 0.00 | 0.00 | 0.00 | 83 | 1018.6 |
| 20260510013605 | 49 | 4 | 5.0 | 14.0 | 0.00 | 0.00 | 0.00 | 84 | 1018.7 |
| 20260510012920 | 49 | 5 | 4.0 | 13.0 | 0.00 | 0.00 | 0.00 | 84 | 1018.6 |
| 20260510011806 | 49 | 5 | 5.0 | 13.0 | 0.00 | 0.00 | 0.00 | 84 | 1018.6 |
| 20260510010903 | 49 | 359 | 4.0 | 14.0 | 0.00 | 0.00 | 0.00 | 84 | 1018.6 |
| 20260510010003 | 50 | 10 | 4.0 | 12.0 | 0.00 | 0.00 | 0.00 | 84 | 1018.5 |
| 20260510005619 | 50 | 7 | 5.0 | 15.0 | 0.00 | 0.00 | 0.00 | 84 | 1018.5 |
| 20260510004505 | 50 | 8 | 4.0 | 11.0 | 0.00 | 0.00 | 0.00 | 84 | 1018.5 |
| 20260510003604 | 50 | 6 | 5.0 | 13.0 | 0.00 | 0.00 | 0.00 | 83 | 1018.5 |
| 20260510002703 | 50 | 5 | 5.0 | 13.0 | 0.00 | 0.00 | 0.00 | 82 | 1018.5 |
| 20260510002019 | 50 | 1 | 5.0 | 15.0 | 0.00 | 0.00 | 0.00 | 81 | 1018.5 |
| 20260510000903 | 51 | 359 | 5.0 | 13.0 | 0.00 | 0.00 | 0.00 | 78 | 1018.6 |
| 20260510000005 | 51 | 2 | 4.0 | 12.0 | 0.00 | 0.00 | 0.00 | 76 | 1018.5 |
| 20260509235404 | 51 | 7 | 5.0 | 12.0 | 0.00 | 0.00 | 0.00 | 75 | 1018.5 |
| 20260509234504 | 52 | 5 | 3.0 | 12.0 | 0.00 | 0.00 | 0.00 | 72 | 1018.5 |
| 20260509233603 | 52 | 5 | 5.0 | 15.0 | 0.00 | 0.00 | 0.00 | 69 | 1018.5 |
| 20260509232917 | 52 | 359 | 6.0 | 13.0 | 0.00 | 0.00 | 0.00 | 66 | 1018.5 |
| 20260509232016 | 53 | 6 | 5.0 | 15.0 | 0.00 | 0.00 | 0.00 | 62 | 1018.5 |
| 20260509230905 | 53 | 1 | 6.0 | 14.0 | 0.00 | 0.00 | 0.00 | 60 | 1018.3 |
| 20260509230006 | 54 | 6 | 4.0 | 14.0 | 0.00 | 0.00 | 0.00 | 60 | 1018.4 |
| 20260509225403 | 54 | 5 | 5.0 | 12.0 | 0.00 | 0.00 | 0.00 | 60 | 1018.4 |
| 20260509224505 | 54 | 8 | 2.0 | 10.0 | 0.00 | 0.00 | 0.00 | 62 | 1018.3 |
| 20260509223604 | 54 | 10 | 1.0 | 5.0 | 0.00 | 0.00 | 0.00 | 62 | 1018.4 |
| 20260509222705 | 54 | 3 | 1.0 | 5.0 | 0.00 | 0.00 | 0.00 | 61 | 1018.3 |
| 20260509221805 | 55 | 9 | 1.0 | 5.0 | 0.00 | 0.00 | 0.00 | 60 | 1018.4 |
| 20260509221119 | 55 | 36 | 0.0 | 1.0 | 0.00 | 0.00 | 0.00 | 59 | 1018.3 |
| 20260509220003 | 56 | 0 | 0.0 | 0.0 | 0.00 | 0.00 | 0.00 | 57 | 1018.4 |
| 20260509215405 | 56 | 0 | 0.0 | 0.0 | 0.00 | 0.00 | 0.00 | 56 | 1018.3 |
| 20260509214503 | 56 | 36 | 0.0 | 1.0 | 0.00 | 0.00 | 0.00 | 55 | 1018.2 |
| 20260509213605 | 57 | 45 | 0.0 | 3.0 | 0.00 | 0.00 | 0.00 | 54 | 1018.0 |
| 20260509212703 | 57 | 35 | 1.0 | 4.0 | 0.00 | 0.00 | 0.00 | 54 | 1017.9 |
| 20260509211805 | 58 | 21 | 0.0 | 3.0 | 0.00 | 0.00 | 0.00 | 53 | 1017.9 |
| 20260509210903 | 58 | 19 | 1.0 | 5.0 | 0.00 | 0.00 | 0.00 | 52 | 1017.9 |
| 20260509210005 | 58 | 49 | 0.0 | 4.0 | 0.00 | 0.00 | 0.00 | 51 | 1017.8 |
| 20260509205620 | 58 | 70 | 0.0 | 2.0 | 0.00 | 0.00 | 0.00 | 51 | 1017.8 |
| 20260509204504 | 58 | 90 | 1.0 | 5.0 | 0.00 | 0.00 | 0.00 | 51 | 1017.9 |
| 20260509203605 | 59 | 82 | 0.0 | 2.0 | 0.00 | 0.00 | 0.00 | 52 | 1017.7 |
| 20260509202703 | 59 | 67 | 0.0 | 2.0 | 0.00 | 0.00 | 0.00 | 51 | 1017.6 |
| 20260509201804 | 59 | 55 | 0.0 | 3.0 | 0.00 | 0.00 | 0.00 | 51 | 1017.6 |
| 20260509200903 | 60 | 94 | 0.0 | 3.0 | 0.00 | 0.00 | 0.00 | 52 | 1017.4 |
| 20260509200005 | 60 | 74 | 0.0 | 1.0 | 0.00 | 0.00 | 0.00 | 52 | 1017.3 |
| 20260509195403 | 60 | 75 | 0.0 | 1.0 | 0.00 | 0.00 | 0.00 | 52 | 1017.2 |
| 20260509194503 | 61 | 322 | 0.0 | 4.0 | 0.00 | 0.00 | 0.00 | 53 | 1017.2 |
| 20260509193818 | 61 | 173 | 0.0 | 4.0 | 0.00 | 0.00 | 0.00 | 52 | 1017.1 |
| 20260509192704 | 62 | 132 | 1.0 | 6.0 | 0.00 | 0.00 | 0.00 | 51 | 1017.0 |
| 20260509192018 | 62 | 125 | 1.0 | 6.0 | 0.00 | 0.00 | 0.00 | 51 | 1016.9 |
| 20260509190905 | 63 | 118 | 0.0 | 3.0 | 0.00 | 0.00 | 0.00 | 52 | 1016.8 |
| 20260509190003 | 63 | 135 | 1.0 | 6.0 | 0.00 | 0.00 | 0.00 | 51 | 1016.7 |
| 20260509185405 | 64 | 137 | 2.0 | 5.0 | 0.00 | 0.00 | 0.00 | 51 | 1016.7 |
| 20260509184503 | 64 | 122 | 2.0 | 8.0 | 0.00 | 0.00 | 0.00 | 49 | 1016.6 |
| 20260509183603 | 65 | 127 | 2.0 | 8.0 | 0.00 | 0.00 | 0.00 | 49 | 1016.5 |
| 20260509182705 | 65 | 128 | 1.0 | 9.0 | 0.00 | 0.00 | 0.00 | 48 | 1016.5 |
| 20260509182018 | 66 | 49 | 1.0 | 4.0 | 0.00 | 0.00 | 0.00 | 47 | 1016.4 |
| 20260509180904 | 66 | 51 | 0.0 | 3.0 | 0.00 | 0.00 | 0.00 | 47 | 1016.2 |
| 20260509180219 | 66 | 89 | 1.0 | 7.0 | 0.00 | 0.00 | 0.00 | 48 | 1016.2 |
| 20260509175404 | 66 | 49 | 1.0 | 3.0 | 0.00 | 0.00 | 0.00 | 47 | 1016.1 |
| 20260509174505 | 66 | 54 | 0.0 | 3.0 | 0.00 | 0.00 | 0.00 | 46 | 1016.1 |
| 20260509173603 | 67 | 11 | 1.0 | 6.0 | 0.00 | 0.00 | 0.00 | 46 | 1016.0 |
| 20260509172703 | 67 | 10 | 2.0 | 7.0 | 0.00 | 0.00 | 0.00 | 45 | 1016.0 |
| 20260509171803 | 68 | 57 | 1.0 | 4.0 | 0.00 | 0.00 | 0.00 | 45 | 1016.0 |
| 20260509170903 | 68 | 74 | 2.0 | 9.0 | 0.00 | 0.00 | 0.00 | 44 | 1016.1 |
| 20260509170219 | 68 | 9 | 4.0 | 13.0 | 0.00 | 0.00 | 0.00 | 43 | 1016.1 |
| 20260509165618 | 68 | 7 | 6.0 | 13.0 | 0.00 | 0.00 | 0.00 | 41 | 1016.1 |
| 20260509164503 | 69 | 4 | 4.0 | 12.0 | 0.00 | 0.00 | 0.00 | 42 | 1016.2 |
| 20260509163603 | 69 | 1 | 5.0 | 12.0 | 0.00 | 0.00 | 0.00 | 41 | 1016.2 |
| 20260509162703 | 69 | 28 | 2.0 | 12.0 | 0.00 | 0.00 | 0.00 | 43 | 1016.1 |
| 20260509162020 | 69 | 25 | 2.0 | 8.0 | 0.00 | 0.00 | 0.00 | 42 | 1016.2 |
| 20260509160903 | 70 | 17 | 2.0 | 11.0 | 0.00 | 0.00 | 0.00 | 42 | 1016.3 |
| 20260509160003 | 70 | 83 | 1.0 | 7.0 | 0.00 | 0.00 | 0.00 | 43 | 1016.4 |
| 20260509155403 | 70 | 43 | 1.0 | 10.0 | 0.00 | 0.00 | 0.00 | 42 | 1016.4 |
| 20260509154719 | 70 | 42 | 2.0 | 10.0 | 0.00 | 0.00 | 0.00 | 43 | 1016.4 |
| 20260509153604 | 69 | 120 | 1.0 | 4.0 | 0.00 | 0.00 | 0.00 | 41 | 1016.6 |
| 20260509152918 | 69 | 69 | 0.0 | 3.0 | 0.00 | 0.00 | 0.00 | 41 | 1016.6 |
| 20260509151803 | 69 | 12 | 2.0 | 6.0 | 0.00 | 0.00 | 0.00 | 42 | 1016.7 |
| 20260509150904 | 68 | 93 | 1.0 | 4.0 | 0.00 | 0.00 | 0.00 | 43 | 1016.6 |
| 20260509150003 | 68 | 113 | 1.0 | 8.0 | 0.00 | 0.00 | 0.00 | 43 | 1016.5 |
| 20260509145403 | 68 | 128 | 2.0 | 7.0 | 0.00 | 0.00 | 0.00 | 43 | 1016.5 |
| 20260509144506 | 70 | 15 | 2.0 | 9.0 | 0.00 | 0.00 | 0.00 | 42 | 1016.5 |
| 20260509143603 | 70 | 17 | 2.0 | 8.0 | 0.00 | 0.00 | 0.00 | 42 | 1016.4 |
| 20260509142704 | 70 | 13 | 1.0 | 5.0 | 0.00 | 0.00 | 0.00 | 42 | 1016.4 |
| 20260509141805 | 70 | 76 | 2.0 | 8.0 | 0.00 | 0.00 | 0.00 | 43 | 1016.4 |
| 20260509141118 | 71 | 357 | 2.0 | 6.0 | 0.00 | 0.00 | 0.00 | 42 | 1016.5 |
| 20260509140006 | 72 | 1 | 3.0 | 10.0 | 0.00 | 0.00 | 0.00 | 40 | 1016.4 |
| 20260509135404 | 71 | 13 | 1.0 | 9.0 | 0.00 | 0.00 | 0.00 | 41 | 1016.4 |
| 20260509134505 | 71 | 16 | 4.0 | 17.0 | 0.00 | 0.00 | 0.00 | 42 | 1016.6 |
| 20260509133603 | 71 | 77 | 2.0 | 8.0 | 0.00 | 0.00 | 0.00 | 42 | 1016.6 |
| 20260509132705 | 71 | 124 | 2.0 | 12.0 | 0.00 | 0.00 | 0.00 | 41 | 1016.7 |
| 20260509131805 | 71 | 9 | 2.0 | 10.0 | 0.00 | 0.00 | 0.00 | 42 | 1016.8 |
| 20260509130904 | 70 | 23 | 2.0 | 10.0 | 0.00 | 0.00 | 0.00 | 42 | 1016.8 |
| 20260509130005 | 70 | 18 | 4.0 | 12.0 | 0.00 | 0.00 | 0.00 | 44 | 1016.9 |
| 20260509125404 | 69 | 49 | 3.0 | 10.0 | 0.00 | 0.00 | 0.00 | 44 | 1016.9 |
| 20260509124504 | 68 | 135 | 3.0 | 10.0 | 0.00 | 0.00 | 0.00 | 43 | 1016.9 |
| 20260509123603 | 68 | 131 | 3.0 | 10.0 | 0.00 | 0.00 | 0.00 | 47 | 1017.1 |
| 20260509122703 | 68 | 129 | 3.0 | 11.0 | 0.00 | 0.00 | 0.00 | 46 | 1017.3 |
| 20260509121803 | 69 | 108 | 3.0 | 11.0 | 0.00 | 0.00 | 0.00 | 44 | 1017.3 |
| 20260509120905 | 70 | 19 | 2.0 | 12.0 | 0.00 | 0.00 | 0.00 | 46 | 1017.4 |
| 20260509120005 | 69 | 44 | 2.0 | 10.0 | 0.00 | 0.00 | 0.00 | 47 | 1017.4 |
| 20260509115403 | 69 | 66 | 2.0 | 8.0 | 0.00 | 0.00 | 0.00 | 48 | 1017.5 |
| 20260509114505 | 68 | 118 | 3.0 | 11.0 | 0.00 | 0.00 | 0.00 | 47 | 1017.5 |
| 20260509113603 | 69 | 35 | 2.0 | 10.0 | 0.00 | 0.00 | 0.00 | 48 | 1017.7 |
| 20260509112703 | 67 | 84 | 2.0 | 8.0 | 0.00 | 0.00 | 0.00 | 50 | 1017.8 |
| 20260509111805 | 66 | 140 | 4.0 | 10.0 | 0.00 | 0.00 | 0.00 | 51 | 1017.9 |
| 20260509111117 | 66 | 136 | 4.0 | 10.0 | 0.00 | 0.00 | 0.00 | 51 | 1018.0 |
| 20260509110004 | 66 | 131 | 3.0 | 8.0 | 0.00 | 0.00 | 0.00 | 53 | 1018.0 |
| 20260509105618 | 65 | 128 | 3.0 | 8.0 | 0.00 | 0.00 | 0.00 | 52 | 1018.0 |
| 20260509104720 | 65 | 123 | 2.0 | 9.0 | 0.00 | 0.00 | 0.00 | 54 | 1018.0 |
| 20260509103604 | 65 | 136 | 3.0 | 10.0 | 0.00 | 0.00 | 0.00 | 52 | 1018.1 |
| 20260509102918 | 66 | 110 | 3.0 | 9.0 | 0.00 | 0.00 | 0.00 | 52 | 1018.3 |
| 20260509101804 | 66 | 111 | 2.0 | 7.0 | 0.00 | 0.00 | 0.00 | 55 | 1018.4 |
| 20260509100903 | 66 | 108 | 2.0 | 7.0 | 0.00 | 0.00 | 0.00 | 54 | 1018.4 |
| 20260509100004 | 65 | 133 | 2.0 | 10.0 | 0.00 | 0.00 | 0.00 | 56 | 1018.4 |
| 20260509095405 | 66 | 44 | 1.0 | 4.0 | 0.00 | 0.00 | 0.00 | 56 | 1018.5 |
| 20260509094506 | 65 | 127 | 2.0 | 7.0 | 0.00 | 0.00 | 0.00 | 57 | 1018.5 |
| 20260509093604 | 64 | 103 | 2.0 | 8.0 | 0.00 | 0.00 | 0.00 | 59 | 1018.5 |
| 20260509092705 | 63 | 122 | 3.0 | 8.0 | 0.00 | 0.00 | 0.00 | 59 | 1018.6 |
| 20260509091804 | 63 | 95 | 2.0 | 9.0 | 0.00 | 0.00 | 0.00 | 62 | 1018.6 |
| 20260509090905 | 63 | 129 | 1.0 | 6.0 | 0.00 | 0.00 | 0.00 | 62 | 1018.7 |
| 20260509090005 | 62 | 126 | 1.0 | 6.0 | 0.00 | 0.00 | 0.00 | 60 | 1018.7 |
| 20260509085403 | 62 | 141 | 3.0 | 10.0 | 0.00 | 0.00 | 0.00 | 63 | 1018.7 |
| 20260509084505 | 61 | 129 | 2.0 | 7.0 | 0.00 | 0.00 | 0.00 | 64 | 1018.7 |
| 20260509083605 | 60 | 136 | 3.0 | 9.0 | 0.00 | 0.00 | 0.00 | 66 | 1018.8 |
| 20260509082703 | 60 | 134 | 2.0 | 9.0 | 0.00 | 0.00 | 0.00 | 65 | 1018.8 |
| 20260509081803 | 60 | 134 | 2.0 | 5.0 | 0.00 | 0.00 | 0.00 | 69 | 1018.9 |